This is the latest recevied weather packets stored in our database for station/object KK7ISX. If no packets are shown the sender has not sent any weather packets the latest 10 day(s).
| Time | Temp. | Humidity | Pressure | Rain* | Wind** | Luminosity | Snow |
|---|---|---|---|---|---|---|---|
| 1777517719 | 16.11° C | 42% | 1018.8 hPa | 0 mm | - | 1 W/m² | - |
| 1777517414 | 16.67° C | 41% | 1018.7 hPa | 0 mm | - | 2 W/m² | - |
| 1777517109 | 16.67° C | 40% | 1018.7 hPa | 0 mm | - | 4 W/m² | - |
| 1777516806 | 16.67° C | 39% | 1018.6 hPa | 0 mm | - | 6 W/m² | - |
| 1777516502 | 17.22° C | 38% | 1018.5 hPa | 0 mm | - | 8 W/m² | - |
| 1777516197 | 17.22° C | 37% | 1018.4 hPa | 0 mm | - | 11 W/m² | - |
| 1777515895 | 17.78° C | 36% | 1018.6 hPa | 0 mm | - | 15 W/m² | - |
| 1777515591 | 17.78° C | 35% | 1018.6 hPa | 0 mm | - | 19 W/m² | - |
| 1777515289 | 17.78° C | 36% | 1018.5 hPa | 0 mm | - | 23 W/m² | - |
| 1777514984 | 17.78° C | 36% | 1018.4 hPa | 0 mm | - | 27 W/m² | - |
| 1777514680 | 18.33° C | 35% | 1018.6 hPa | 0 mm | - | 32 W/m² | - |
| 1777514378 | 18.33° C | 35% | 1018.5 hPa | 0 mm | - | 37 W/m² | - |
| 1777514074 | 18.33° C | 35% | 1018.4 hPa | 0 mm | - | 42 W/m² | - |
| 1777513772 | 18.89° C | 34% | 1018.6 hPa | 0 mm | - | 46 W/m² | - |
| 1777513469 | 18.89° C | 34% | 1018.5 hPa | 0 mm | - | 57 W/m² | - |
| 1777513165 | 18.89° C | 34% | 1018.5 hPa | 0 mm | - | 65 W/m² | - |
| 1777512861 | 18.89° C | 34% | 1018.6 hPa | 0 mm | - | 73 W/m² | - |
| 1777512558 | 18.89° C | 35% | 1018.4 hPa | 0 mm | - | 81 W/m² | - |
| 1777512255 | 18.89° C | 34% | 1018.5 hPa | 0 mm | - | 88 W/m² | - |
| 1777511952 | 18.89° C | 34% | 1018.5 hPa | 0 mm | - | 96 W/m² | - |
| 1777511649 | 18.89° C | 33% | 1018.5 hPa | 0 mm | - | 44 W/m² | - |
| 1777511347 | 18.89° C | 34% | 1018.5 hPa | 0 mm | - | 113 W/m² | - |
| 1777511042 | 19.44° C | 32% | 1018.6 hPa | 0 mm | - | 124 W/m² | - |
| 1777510739 | 18.89° C | 33% | 1018.6 hPa | 0 mm | - | 136 W/m² | - |
| 1777510436 | 19.44° C | 33% | 1018.7 hPa | 0 mm | - | 138 W/m² | - |
* Rain latest hour (hover to see other rain measurements)
** Current wind speed in m/s (hover to see current wind gust speed)